• în România
  • Lista ţărilor
  • Pe 7 zile
  • Temperatura apei
  • Hartă satelitară
  • Meteo pe hartă
  • Widget-uri
  • user-avatar
    Intrare

    Meteo pe oră la Jimbolia

    Astăzi, 21 Ianuarie, Duminică

    Timp Temperatura Precipitaţii Vânt Presiune Umiditate
    00:00 -1°C° 0 mm 4 m/s 750 mmHg 82%
    01:00 -1°C° 0 mm 4 m/s 749 mmHg 84%
    02:00 -1°C° 0 mm 4 m/s 749 mmHg 82%
    03:00 -1°C° 0 mm 4 m/s 748 mmHg 79%
    04:00 -1°C° 0 mm 5 m/s 748 mmHg 76%
    05:00 -1°C° 0 mm 5 m/s 747 mmHg 73%
    06:00 0°C° 0 mm 5 m/s 747 mmHg 70%
    07:00 -1°C° 0 mm 4 m/s 746 mmHg 69%
    08:00 0°C° 0,4 mm 4 m/s 746 mmHg 69%
    09:00 0°C° 0,4 mm 4 m/s 746 mmHg 68%
    10:00 +1°C° 0,4 mm 5 m/s 746 mmHg 68%
    11:00 +1°C° 0,5 mm 4 m/s 746 mmHg 71%
    12:00 +2°C° 0,5 mm 3 m/s 746 mmHg 75%
    13:00 +2°C° 0 mm 3 m/s 746 mmHg 77%
    14:00 +2°C° 0,2 mm 3 m/s 747 mmHg 81%
    15:00 +2°C° 0,2 mm 3 m/s 747 mmHg 86%
    16:00 +2°C° 0,2 mm 2 m/s 748 mmHg 90%
    17:00 +1°C° 0,2 mm 3 m/s 748 mmHg 90%
    18:00 0°C° 0,2 mm 4 m/s 749 mmHg 91%
    19:00 0°C° 0,2 mm 4 m/s 749 mmHg 91%
    20:00 -1°C° 0,1 mm 5 m/s 750 mmHg 90%
    21:00 -1°C° 0,1 mm 5 m/s 750 mmHg 89%
    22:00 -2°C° 0,1 mm 6 m/s 751 mmHg 88%
    23:00 -2°C° 0,1 mm 6 m/s 751 mmHg 88%

    Mâine, 22 Ianuarie, Luni

    Timp Temperatura Precipitaţii Vânt Presiune Umiditate
    00:00 -1°C° 0,1 mm 5 m/s 751 mmHg 89%
    01:00 -2°C° 0,1 mm 5 m/s 751 mmHg 89%
    02:00 -2°C° 0 mm 5 m/s 752 mmHg 88%
    03:00 -2°C° 0 mm 5 m/s 752 mmHg 87%
    04:00 -2°C° 0 mm 5 m/s 752 mmHg 87%
    05:00 -2°C° 0 mm 5 m/s 753 mmHg 87%
    06:00 -4°C° 0 mm 5 m/s 753 mmHg 87%
    07:00 -3°C° 0 mm 4 m/s 753 mmHg 88%
    08:00 -3°C° 0 mm 4 m/s 754 mmHg 85%
    09:00 -2°C° 0 mm 4 m/s 754 mmHg 82%
    10:00 -1°C° 0 mm 4 m/s 754 mmHg 79%
    11:00 -1°C° 0 mm 4 m/s 754 mmHg 78%
    12:00 -1°C° 0 mm 4 m/s 754 mmHg 77%
    13:00 +1°C° 0 mm 3 m/s 754 mmHg 76%
    14:00 +1°C° 0 mm 3 m/s 755 mmHg 77%
    15:00 +1°C° 0 mm 2 m/s 755 mmHg 79%
    16:00 +1°C° 0 mm 2 m/s 755 mmHg 81%
    17:00 -1°C° 0 mm 2 m/s 755 mmHg 82%
    18:00 +1°C° 0 mm 1 m/s 756 mmHg 84%
    19:00 0°C° 0 mm 1 m/s 756 mmHg 86%
    20:00 0°C° 0 mm 1 m/s 756 mmHg 86%
    21:00 0°C° 0 mm 1 m/s 757 mmHg 86%
    22:00 0°C° 0 mm 1 m/s 757 mmHg 86%
    23:00 0°C° 0 mm 1 m/s 757 mmHg 86%

    Poimâine, 23 Ianuarie, Marţi

    Timp Temperatura Precipitaţii Vânt Presiune Umiditate
    00:00 0°C° 0 mm 1 m/s 758 mmHg 86%
    01:00 -1°C° 0 mm 0 m/s 758 mmHg 86%
    02:00 -2°C° 0 mm 0 m/s 758 mmHg 86%
    03:00 -2°C° 0 mm 0 m/s 758 mmHg 86%
    04:00 -2°C° 0 mm 0 m/s 759 mmHg 86%
    05:00 -1°C° 0 mm 0 m/s 759 mmHg 85%
    06:00 -1°C° 0 mm 0 m/s 759 mmHg 85%
    07:00 -1°C° 0 mm 0 m/s 760 mmHg 84%
    08:00 0°C° 0 mm 0 m/s 760 mmHg 81%
    09:00 0°C° 0 mm 0 m/s 761 mmHg 77%
    10:00 +1°C° 0 mm 0 m/s 761 mmHg 74%
    11:00 +1°C° 0 mm 0 m/s 762 mmHg 72%
    12:00 +2°C° 0 mm 0 m/s 762 mmHg 69%
    13:00 +2°C° 0 mm 0 m/s 762 mmHg 67%
    14:00 +3°C° 0 mm 1 m/s 762 mmHg 70%
    15:00 +2°C° 0 mm 1 m/s 763 mmHg 73%
    16:00 +2°C° 0 mm 1 m/s 763 mmHg 76%
    17:00 +1°C° 0 mm 1 m/s 764 mmHg 78%
    18:00 +1°C° 0 mm 1 m/s 764 mmHg 81%
    19:00 0°C° 0 mm 1 m/s 765 mmHg 83%
    20:00 0°C° 0 mm 1 m/s 765 mmHg 83%
    21:00 0°C° 0 mm 1 m/s 766 mmHg 83%
    22:00 0°C° 0 mm 1 m/s 766 mmHg 84%
    23:00 0°C° 0 mm 1 m/s 767 mmHg 84%

    24 Ianuarie, Miercuri

    Timp Temperatura Precipitaţii Vânt Presiune Umiditate
    00:00 0°C° 0 mm 1 m/s 767 mmHg 84%
    01:00 -1°C° 0 mm 0 m/s 767 mmHg 83%
    02:00 0°C° 0 mm 1 m/s 767 mmHg 84%
    03:00 0°C° 0 mm 1 m/s 767 mmHg 84%
    04:00 0°C° 0 mm 1 m/s 768 mmHg 84%
    05:00 0°C° 0 mm 1 m/s 768 mmHg 84%
    06:00 0°C° 0 mm 1 m/s 768 mmHg 85%
    07:00 0°C° 0 mm 1 m/s 769 mmHg 85%
    08:00 -2°C° 0 mm 2 m/s 769 mmHg 81%
    09:00 -1°C° 0 mm 2 m/s 769 mmHg 77%
    10:00 +1°C° 0 mm 2 m/s 769 mmHg 73%
    11:00 +1°C° 0 mm 3 m/s 769 mmHg 70%
    12:00 +2°C° 0 mm 3 m/s 769 mmHg 67%
    13:00 +3°C° 0 mm 3 m/s 769 mmHg 64%
    14:00 +2°C° 0 mm 3 m/s 769 mmHg 68%
    15:00 +2°C° 0 mm 2 m/s 768 mmHg 72%
    16:00 +2°C° 0 mm 2 m/s 768 mmHg 75%
    17:00 +1°C° 0 mm 2 m/s 768 mmHg 78%
    18:00 -1°C° 0 mm 2 m/s 768 mmHg 81%
    19:00 -1°C° 0 mm 2 m/s 768 mmHg 84%
    20:00 -1°C° 0 mm 3 m/s 768 mmHg 85%
    21:00 -2°C° 0 mm 3 m/s 768 mmHg 85%
    22:00 -2°C° 0 mm 3 m/s 768 mmHg 85%
    23:00 -2°C° 0 mm 3 m/s 767 mmHg 85%

    25 Ianuarie, Joi

    Timp Temperatura Precipitaţii Vânt Presiune Umiditate
    00:00 -2°C° 0 mm 3 m/s 767 mmHg 84%
    01:00 -2°C° 0 mm 3 m/s 766 mmHg 83%
    02:00 -2°C° 0 mm 3 m/s 766 mmHg 81%
    03:00 -2°C° 0 mm 3 m/s 766 mmHg 80%
    04:00 -2°C° 0 mm 3 m/s 765 mmHg 78%
    05:00 -2°C° 0 mm 3 m/s 765 mmHg 76%
    06:00 -2°C° 0 mm 3 m/s 765 mmHg 75%
    07:00 -2°C° 0 mm 3 m/s 765 mmHg 73%
    08:00 -1°C° 0 mm 3 m/s 764 mmHg 67%
    09:00 +1°C° 0 mm 3 m/s 764 mmHg 62%
    10:00 +2°C° 0 mm 3 m/s 764 mmHg 56%
    11:00 +3°C° 0 mm 3 m/s 763 mmHg 54%
    12:00 +4°C° 0 mm 3 m/s 763 mmHg 52%
    13:00 +5°C° 0 mm 3 m/s 762 mmHg 49%
    14:00 +4°C° 0 mm 3 m/s 762 mmHg 54%
    15:00 +4°C° 0 mm 2 m/s 762 mmHg 58%
    16:00 +3°C° 0 mm 2 m/s 761 mmHg 63%
    17:00 +3°C° 0 mm 2 m/s 761 mmHg 65%
    18:00 +2°C° 0 mm 2 m/s 761 mmHg 67%
    19:00 +1°C° 0 mm 2 m/s 761 mmHg 69%
    20:00 0°C° 0 mm 3 m/s 761 mmHg 69%
    21:00 0°C° 0 mm 3 m/s 761 mmHg 70%
    22:00 0°C° 0 mm 3 m/s 761 mmHg 70%
    23:00 0°C° 0 mm 3 m/s 761 mmHg 69%

    26 Ianuarie, Vineri

    Timp Temperatura Precipitaţii Vânt Presiune Umiditate
    00:00 0°C° 0 mm 3 m/s 760 mmHg 67%
    01:00 -1°C° 0 mm 3 m/s 760 mmHg 66%
    02:00 -1°C° 0 mm 3 m/s 760 mmHg 64%
    03:00 -1°C° 0 mm 3 m/s 760 mmHg 63%
    04:00 -1°C° 0 mm 3 m/s 760 mmHg 62%
    05:00 -1°C° 0 mm 3 m/s 760 mmHg 61%
    06:00 -2°C° 0 mm 4 m/s 760 mmHg 60%
    07:00 -2°C° 0 mm 4 m/s 760 mmHg 59%
    08:00 -1°C° 0 mm 4 m/s 760 mmHg 55%
    09:00 +1°C° 0 mm 5 m/s 760 mmHg 51%
    10:00 +2°C° 0 mm 5 m/s 760 mmHg 48%
    11:00 +3°C° 0 mm 5 m/s 760 mmHg 47%
    12:00 +5°C° 0 mm 5 m/s 759 mmHg 47%
    13:00 +6°C° 0 mm 5 m/s 759 mmHg 46%
    14:00 +5°C° 0 mm 4 m/s 759 mmHg 50%
    15:00 +4°C° 0 mm 4 m/s 759 mmHg 54%
    16:00 +3°C° 0 mm 3 m/s 759 mmHg 59%
    17:00 +3°C° 0 mm 4 m/s 759 mmHg 61%
    18:00 +1°C° 0 mm 4 m/s 759 mmHg 63%
    19:00 0°C° 0 mm 4 m/s 760 mmHg 65%
    20:00 +1°C° 0 mm 3 m/s 760 mmHg 66%
    21:00 +1°C° 0 mm 3 m/s 760 mmHg 66%
    22:00 +1°C° 0 mm 3 m/s 760 mmHg 66%
    23:00 0°C° 0 mm 3 m/s 760 mmHg 67%
    Arată mai mult